Total_Precipitation_Accumulation
0.00 0.00 0.01 0.01 0.01 0.02 0.04 0.05 0.10 0.12 0.09 0.09 0.19 0.27 0.30 0.31 0.35 0.33 0.31 0.29 0.26 0.34 0.51 0.72 1.03 1.37 1.71 2.07 2.54 2.73 2.68 2.24 1.78 1.58 1.39 1.30 1.20 1.16 1.21 1.22 1.18 1.13 1.03 1.01
0.02 0.03 0.02 0.02 0.02 0.03 0.07 0.07 0.12 0.14 0.09 0.09 0.20 0.42 0.51 0.53 0.40 0.33 0.27 0.32 0.33 0.45 0.69 1.06 1.50 1.72 1.68 1.93 2.42 2.46 2.01 1.56 1.27 1.12 1.00 0.90 0.88 0.87 0.85 0.83 0.81 0.80 0.81 0.86
0.04 0.05 0.02 0.02 0.04 0.09 0.10 0.10 0.13 0.13 0.10 0.14 0.25 0.47 0.69 0.63 0.41 0.29 0.24 0.25 0.34 0.54 0.84 1.17 1.51 1.61 1.50 1.71 1.75 1.46 1.16 0.90 0.71 0.61 0.57 0.60 0.57 0.57 0.51 0.46 0.46 0.52 0.58 0.59
0.03 0.03 0.02 0.03 0.04 0.05 0.06 0.05 0.05 0.05 0.07 0.16 0.29 0.57 0.86 0.74 0.50 0.37 0.30 0.33 0.36 0.39 0.53 0.75 0.95 1.07 1.14 1.15 1.00 0.82 0.71 0.59 0.53 0.53 0.47 0.53 0.47 0.43 0.38 0.34 0.34 0.39 0.42 0.42
0.03 0.02 0.02 0.03 0.03 0.03 0.04 0.03 0.03 0.05 0.06 0.11 0.28 0.53 0.81 0.86 0.73 0.55 0.43 0.40 0.33 0.26 0.30 0.41 0.46 0.53 0.60 0.62 0.57 0.47 0.54 0.60 0.56 0.52 0.46 0.42 0.36 0.31 0.28 0.31 0.34 0.39 0.41 0.41
0.05 0.04 0.03 0.02 0.02 0.03 0.03 0.04 0.07 0.12 0.15 0.32 0.35 0.43 0.69 0.72 0.70 0.63 0.48 0.34 0.25 0.22 0.26 0.30 0.28 0.25 0.25 0.26 0.26 0.26 0.33 0.42 0.42 0.42 0.40 0.37 0.34 0.32 0.29 0.28 0.30 0.32 0.36 0.38
0.12 0.09 0.06 0.03 0.03 0.03 0.04 0.05 0.13 0.33 0.46 0.55 0.37 0.43 0.65 0.59 0.65 0.68 0.45 0.25 0.18 0.17 0.18 0.21 0.22 0.18 0.16 0.14 0.13 0.12 0.14 0.23 0.27 0.29 0.32 0.32 0.32 0.31 0.29 0.25 0.25 0.26 0.26 0.31
0.13 0.13 0.05 0.03 0.04 0.04 0.04 0.04 0.06 0.09 0.15 0.25 0.33 0.72 0.75 0.47 0.49 0.40 0.21 0.11 0.09 0.09 0.09 0.11 0.11 0.10 0.09 0.08 0.07 0.06 0.06 0.08 0.09 0.13 0.17 0.19 0.22 0.23 0.25 0.31 0.29 0.25 0.24 0.27
0.04 0.03 0.02 0.03 0.04 0.05 0.04 0.03 0.03 0.04 0.05 0.14 0.35 0.64 0.52 0.31 0.32 0.20 0.11 0.05 0.04 0.05 0.05 0.05 0.05 0.05 0.04 0.04 0.04 0.04 0.04 0.04 0.05 0.05 0.08 0.10 0.14 0.18 0.24 0.30 0.28 0.24 0.24 0.23
0.01 0.01 0.01 0.02 0.03 0.04 0.04 0.03 0.03 0.03 0.04 0.07 0.22 0.49 0.52 0.38 0.31 0.17 0.08 0.04 0.03 0.03 0.03 0.03 0.03 0.03 0.03 0.02 0.02 0.02 0.03 0.03 0.03 0.03 0.03 0.05 0.11 0.19 0.26 0.30 0.26 0.23 0.21 0.20
0.01 0.01 0.01 0.02 0.03 0.04 0.04 0.04 0.04 0.04 0.05 0.06 0.11 0.25 0.24 0.25 0.20 0.11 0.06 0.04 0.01 0.01 0.01 0.01 0.01 0.01 0.01 0.01 0.01 0.02 0.02 0.02 0.02 0.02 0.03 0.07 0.16 0.21 0.27 0.42 0.40 0.25 0.19 0.17
0.00 0.00 0.02 0.04 0.05 0.05 0.05 0.05 0.04 0.05 0.05 0.04 0.06 0.14 0.10 0.11 0.09 0.06 0.04 0.02 0.01 0.01 0.00 0.00 0.00 0.01 0.01 0.01 0.01 0.01 0.02 0.02 0.02 0.02 0.02 0.05 0.15 0.20 0.23 0.30 0.33 0.26 0.21 0.18
0.00 0.00 0.02 0.08 0.12 0.07 0.05 0.04 0.04 0.05 0.04 0.03 0.11 0.18 0.08 0.05 0.04 0.03 0.02 0.01 0.00 0.00 0.00 0.00 0.00 0.00 0.01 0.01 0.01 0.01 0.01 0.01 0.01 0.02 0.03 0.05 0.07 0.08 0.10 0.12 0.16 0.20 0.22 0.24
0.01 0.01 0.01 0.04 0.05 0.04 0.05 0.05 0.08 0.06 0.06 0.07 0.11 0.17 0.07 0.03 0.01 0.01 0.00 0.00 0.00 0.00 0.00 0.00 0.00 0.00 0.00 0.00 0.00 0.01 0.01 0.01 0.01 0.02 0.03 0.04 0.05 0.04 0.05 0.07 0.12 0.17 0.21 0.22
0.01 0.00 0.00 0.01 0.03 0.04 0.05 0.06 0.07 0.05 0.06 0.10 0.08 0.08 0.04 0.01 0.01 0.01 0.00 0.00 0.00 0.00 0.01 0.01 0.01 0.01 0.01 0.01 0.01 0.01 0.01 0.02 0.02 0.04 0.09 0.09 0.07 0.06 0.06 0.08 0.10 0.12 0.13 0.13
0.01 0.00 0.00 0.00 0.03 0.03 0.05 0.08 0.06 0.03 0.02 0.03 0.03 0.03 0.01 0.02 0.02 0.02 0.02 0.02 0.02 0.02 0.02 0.02 0.02 0.02 0.01 0.01 0.02 0.01 0.02 0.02 0.04 0.08 0.14 0.17 0.14 0.08 0.06 0.06 0.08 0.10 0.11 0.13
0.00 0.00 0.01 0.01 0.02 0.03 0.12 0.10 0.04 0.02 0.02 0.03 0.04 0.05 0.04 0.05 0.05 0.07 0.07 0.06 0.05 0.04 0.03 0.02 0.01 0.01 0.01 0.01 0.01 0.02 0.02 0.03 0.10 0.13 0.11 0.18 0.20 0.10 0.06 0.07 0.09 0.12 0.14 0.17
0.01 0.01 0.01 0.01 0.02 0.09 0.10 0.04 0.02 0.02 0.03 0.04 0.05 0.06 0.08 0.09 0.09 0.09 0.10 0.08 0.04 0.02 0.01 0.00 0.00 0.00 0.00 0.00 0.01 0.02 0.05 0.05 0.13 0.16 0.13 0.19 0.21 0.13 0.13 0.15 0.17 0.19 0.23 0.26
0.02 0.01 0.01 0.01 0.01 0.06 0.05 0.04 0.04 0.05 0.05 0.06 0.08 0.11 0.11 0.09 0.06 0.04 0.03 0.02 0.01 0.00 0.00 0.00 0.00 0.00 0.00 0.01 0.01 0.03 0.08 0.11 0.12 0.15 0.14 0.21 0.28 0.24 0.24 0.26 0.29 0.33 0.37 0.38
0.02 0.02 0.02 0.01 0.04 0.07 0.06 0.06 0.07 0.08 0.14 0.12 0.09 0.07 0.04 0.02 0.03 0.01 0.00 0.00 0.00 0.00 0.00 0.00 0.00 0.00 0.01 0.02 0.04 0.05 0.08 0.13 0.15 0.16 0.18 0.24 0.37 0.42 0.40 0.39 0.42 0.44 0.51 0.54
0.01 0.01 0.02 0.03 0.06 0.08 0.06 0.05 0.06 0.12 0.15 0.05 0.02 0.02 0.02 0.02 0.03 0.01 0.00 0.01 0.01 0.00 0.00 0.01 0.01 0.01 0.03 0.05 0.08 0.12 0.14 0.16 0.18 0.20 0.24 0.30 0.44 0.58 0.56 0.56 0.56 0.58 0.60 0.67
0.01 0.01 0.01 0.04 0.10 0.13 0.03 0.02 0.05 0.06 0.04 0.02 0.02 0.02 0.02 0.02 0.01 0.01 0.01 0.01 0.01 0.01 0.01 0.02 0.03 0.05 0.06 0.10 0.17 0.22 0.23 0.23 0.26 0.28 0.32 0.37 0.51 0.55 0.59 0.67 0.72 0.80 0.83 0.84
0.00 0.01 0.02 0.04 0.07 0.03 0.00 0.01 0.02 0.02 0.02 0.02 0.02 0.02 0.02 0.02 0.02 0.02 0.03 0.02 0.02 0.01 0.02 0.03 0.05 0.08 0.12 0.17 0.27 0.36 0.37 0.38 0.39 0.38 0.39 0.44 0.52 0.65 0.80 0.85 0.82 0.88 0.96 1.00
0.00 0.00 0.01 0.04 0.02 0.01 0.01 0.01 0.02 0.01 0.02 0.02 0.01 0.01 0.01 0.03 0.04 0.05 0.05 0.04 0.03 0.03 0.03 0.04 0.07 0.12 0.17 0.25 0.37 0.47 0.49 0.51 0.50 0.45 0.43 0.48 0.57 0.67 0.81 0.96 0.99 1.04 1.07 1.07
0.00 0.00 0.01 0.03 0.01 0.00 0.01 0.01 0.01 0.01 0.01 0.01 0.00 0.01 0.02 0.04 0.05 0.06 0.06 0.06 0.05 0.04 0.04 0.06 0.11 0.16 0.20 0.30 0.45 0.53 0.57 0.60 0.58 0.52 0.47 0.48 0.55 0.65 0.74 0.87 0.98 1.01 1.03 0.97
0.00 0.00 0.01 0.01 0.00 0.00 0.01 0.00 0.00 0.00 0.01 0.01 0.01 0.01 0.02 0.03 0.04 0.04 0.05 0.04 0.04 0.04 0.07 0.11 0.15 0.21 0.25 0.31 0.42 0.52 0.65 0.77 0.79 0.70 0.60 0.54 0.54 0.62 0.69 0.79 0.82 0.74 0.73 0.71